User: anonymous   Login
Location: *
(40.4270°N, 9.4940°E)
Time: 02:35:49
(UTC+02:00)
Language:

Okean 2 - Orbit

View from above orbital plane
View from above orbital plane
View from above satellite
View from above satellite

Ground track
Ground track

The orbit data is extracted from the following two-line orbital elements,

1 20510U 90018A   16146.53146367  .00000569  00000-0  45260-4 0  9990
2 20510  82.5157 183.5762 0011717 204.0588 267.7725 14.98542777423384
Epoch (UTC): 25 May 2016 12:45:18
Eccentricity: 0.0011717
inclination: 82.5157°
perigee height: 563 km
apogee height: 579 km
right ascension of ascending node: 183.5762°
argument of perigee: 204.0588°
revolutions per day: 14.98542777
mean anomaly at epoch: 267.7725°
orbit number at epoch: 42338

The dashed part of the orbit path shows where the satellite is in the earth's shadow,  

DLR